Community: Exchange advice in the forums and read running commentary Resources: Personal running log, calculators, links and other tools for runners News: Running news from around the world Training: Articles and advice about fitness, race training and injury prevention Races/Results: Find upcoming races and past results Home: The Cool Running homepage

Cool Running homepage
events
Maine Event Spotlights
Find Events
Find Results
Race Directors

Race directors: Promote your event
Discover how Cool Running can help you.

Add to our calendar
Submit your race to our event calendar.

Submit race results
Add race results to our results section.

Instant Ads
Pay-Per-Click Ads on Active.com  
   
> Printer-friendly page

Weekly Back Cove 5K

Portland, ME, September 1, 2010

Overall


Back Cove 5k Race Series

2010 Back Cove Weekly Series

Week 17 (2010-09-01)

Weather: 86 degrees, sticky

Thanks to John Rogers and The Maine Running Co. staff for another great year of the WBC5K. Also thanks to Portland Trails, Mizuno, The Maine Track Club, Blaine Moore and Don Penta. Email corrections to palmerstu@hotmail.com

Fittingly Noah Schoneberg and Erin Lane took home the "hot" wins and the grand prix wins as well. Erin Lane edged Christine Irish by 8 sec. on the best of 6 race avg. and 16 seconds in the race today. An exciting finish.


Place Time Bib Name
1 00:18:25 442 Noah Schoneberg
2 00:18:32 272 Rick Chalmers
3 00:18:45 359 Tyler Littlefield
4 00:18:51 912 EArl Han
5 00:18:56 215 Stephen Desjardins
6 00:19:09 614 Zach Boyce
7 00:19:15 644 Erin Lane
8 00:19:15 449 Matt Lane
9 00:19:21 1235 Peter Hall
10 00:19:31 928 Christine Irish
11 00:19:42 873 Peter Burke
12 00:19:55 167 Michael Cwiklinski
13 00:20:08 515 Nick Rofe
14 00:20:17 251 Jeff Walker
15 00:20:29 229 Sean Keough
16 00:20:45 10 Joshua Lundin
17 00:20:57 140 Derek J. Veilleux
18 00:21:02 967 Jen Piesik
19 00:21:26 42 Ronald Hunt
20 00:21:30 129 Randall Woods
21 00:21:32 383 Kyle Purinton
22 00:21:43 39 Gregory Lull
23 00:21:44 8 Nathan Augustine
24 00:00:00 222 Roberto Brandao
25 00:22:29 573 Rich Johnson
26 00:22:37 520 Parker Swenson
27 00:22:38 605 Dan Hunter
28 00:22:40 276 Pete Morrill
29 00:22:48 433 Mike Erskine
30 00:22:50 684 Erin Wood
31 00:22:50 823 Joe Parent
32 00:22:54 330 Doug Boxer-Cook
33 00:22:54 36 Rob Ward
34 00:22:55 781 James Becker
35 00:23:09 932 Dakota Hoitt
36 00:23:12 463 John Lloyd
37 00:23:12 1175 John Gjika
38 00:23:13 981 Ruth Hall
39 00:23:16 1242 Susan Wiemer
40 00:23:21 771 Dana Hartwell
41 00:23:25 1012 Mark Begley
42 00:23:33 1244 James Pratt
43 00:23:35 698 Adam Lamarre
44 00:23:46 303 Christy McAllaster
45 00:23:48 1167 Paul Brown
46 00:24:01 1059 Scott Robichaud
47 00:24:01 559 Ryan Gallop
48 00:24:05 19 michael beaudoin
49 00:24:06 1236 Steven Violette
50 00:24:09 70 Merle Hartford
51 00:24:17 606 Bruan Tucker
52 00:24:19 525 Alex Johanson
53 00:24:36 458 Heidi Packard
54 00:24:38 550 Pamela Files
55 00:24:39 1079 ALEX GLIDDEN
56 00:24:42 1171 Greg Richard
57 00:24:47 694 Tim Hannan
58 00:25:26 414 Scott Reoch
59 00:25:38 454 Joanna Piepgrass
60 00:25:40 460 John Hill
61 00:25:41 970 Erik Howell
62 00:25:43 534 Arden Manning
63 00:25:43 0 {unknown runner}
64 00:25:54 565 Terri Thompson
65 00:26:01 297 Heather Henningsen
66 00:26:11 1112 Derik Bibb
67 00:26:14 885 Kevin Bridges
68 00:26:18 289 Doug Hekl
69 00:26:24 599 Maddy Adams
70 00:26:26 1243 Matt McKee
71 00:26:27 1245 Bob Asbell
72 00:26:31 357 Rebekah Sirois
73 00:26:31 679 Greg Geisser
74 00:26:37 598 Robert Adams
75 00:26:51 1065 Ian Alexander
76 00:26:52 158 nancy miller
77 00:26:57 459 Rob Boudewija
78 00:27:13 113 Eugene Longobardi
79 00:27:15 1135 Erin McKay
80 00:27:29 57 Peter Cole
81 00:27:31 503 Fiona Clifford
82 00:27:32 13 Richard Dawson
83 00:27:50 1166 Celine Gauthier
84 00:27:53 125 Jeffrey Edwards
85 00:27:56 1156 Brianna Ray
86 00:28:01 613 Bob Zukowski
87 00:28:02 49 Paul Boutin
88 00:28:19 266 Mark Duval
89 00:28:21 381 Allen Huntington
90 00:28:33 604 Bryron Cook
91 00:28:45 820 Drew Swenson
92 00:29:13 403 Keith Anderson
93 00:29:49 116 Rob Reed
94 00:29:58 31 frank arsenault
95 00:30:24 687 Catherine Rush
96 00:30:37 23 carl moulton
97 00:31:17 633 Dan Stokes
98 00:32:20 1046 John Flaherty
99 00:32:22 1241 Zach Kendrick
100 00:32:27 145 Harry Hunt
101 00:32:36 1238 Kelley Nelson
102 00:32:37 1237 Susan Ulery
103 00:33:05 511 Harry Center
104 00:33:36 625 David Collins
105 00:33:54 1142 Donna Bisbee
106 00:34:03 250 Adrienne Wilson
107 00:34:22 1125 radiopodarok radiopodarok
108 00:35:48 648 Colleen Huntington
109 00:36:56 686 Lena Wood
110 00:36:56 685 David Wood
111 00:37:12 1220 Kim Titus
112 00:38:25 441 Adam Temple
113 00:38:43 1233 Jeremy Wright
114 00:41:32 1218 Tracy Elkins
115 00:41:57 670 Diane Moore
116 00:41:57 669 Mary Cummings
117 00:43:08 1219 Marsha Aiken
118 00:43:15 1224 Tammy Beaulieu
119 00:57:50 1240 Kain Koehning
120 00:57:59 1239 Cheryl Huntington


Series Leaderboard through week 17

Place Bib # Time Average Name
1 442 01:43:15 00:17:12 Noah Schoneberg
2 280 01:46:35 00:17:45 Dave Manz
3 506 01:47:23 00:17:53 Toby Grindal
4 1 01:47:48 00:17:58 Blaine Moore
5 610 01:48:36 00:18:06 Nathan Buck
6 710 01:48:53 00:18:08 Lee Spencer
7 215 01:49:37 00:18:16 Stephen Desjardins
8 614 01:50:22 00:18:23 Zach Boyce
9 359 01:51:03 00:18:30 Tyler Littlefield
10 272 01:51:20 00:18:33 Rick Chalmers
11 216 01:51:53 00:18:38 Kevin McDonough
12 449 01:53:26 00:18:54 Matt Lane
13 374 01:53:54 00:18:59 Eric Friend
14 815 01:54:35 00:19:05 Devin Anderson
15 362 01:55:47 00:19:17 aaron chelate
16 644 01:57:32 00:19:35 Erin Lane
17 167 01:58:03 00:19:40 Michael Cwiklinski
18 928 01:58:23 00:19:43 Christine Irish
19 873 01:58:27 00:19:44 Peter Burke
20 515 01:58:55 00:19:49 Nick Rofe
21 129 01:59:38 00:19:56 Randall Woods
22 251 02:00:31 00:20:05 Jeff Walker
23 186 02:01:03 00:20:10 Kyle Simmons
24 354 02:01:19 00:20:13 Scott Potter
25 10 02:02:41 00:20:26 Joshua Lundin
26 247 02:02:53 00:20:28 Lilian Childress
27 402 02:02:55 00:20:29 Dan Dube
28 229 02:03:32 00:20:35 Sean Keough
29 265 02:03:39 00:20:36 Martin Duval
30 281 02:03:43 00:20:37 Ian Parlin
31 596 02:03:48 00:20:38 Matt Escasio
32 42 02:04:33 00:20:45 Ronald Hunt
33 140 02:05:32 00:20:55 Derek J. Veilleux
34 63 02:05:36 00:20:56 Sean Case
35 248 02:05:45 00:20:57 Darren Winchenbach
36 383 02:06:43 00:21:07 Kyle Purinton
37 733 02:07:01 00:21:10 Daniel Harris
38 8 02:07:03 00:21:10 Nathan Augustine
39 39 02:07:40 00:21:16 Gregory Lull
40 75 02:07:50 00:21:18 Travis Kinney
41 255 02:07:55 00:21:19 Dominic Tracey
42 597 02:08:08 00:21:21 Richard Hart
43 172 02:09:04 00:21:30 Edward Muennich
44 932 02:09:14 00:21:32 Dakota Hoitt
45 518 02:09:24 00:21:34 Matt Vasil
46 9 02:09:48 00:21:38 Emilio Millan
47 740 02:10:22 00:21:43 Justin Reardon
48 108 02:11:07 00:21:51 Emily Hickey
49 303 02:13:08 00:22:11 Christy McAllaster
50 81 02:13:08 00:22:11 David Benham
51 36 02:13:34 00:22:15 Rob Ward
52 605 02:13:35 00:22:15 Dan Hunter
53 684 02:13:43 00:22:17 Erin Wood
54 276 02:14:30 00:22:25 Pete Morrill
55 520 02:15:27 00:22:34 Parker Swenson
56 295 02:15:29 00:22:34 Ryan O'Hara
57 199 02:15:30 00:22:35 Vincent Aceto
58 911 02:15:50 00:22:38 Henry Stabler
59 573 02:15:54 00:22:39 Rich Johnson
60 823 02:15:57 00:22:39 Joe Parent
61 97 02:16:40 00:22:46 Matthew Bolduc
62 254 02:17:49 00:22:58 Brad Genest
63 159 02:17:58 00:22:59 daniel simonitis
64 44 02:18:37 00:23:06 Christopher Whitney
65 330 02:19:47 00:23:17 Doug Boxer-Cook
66 534 02:19:57 00:23:19 Arden Manning
67 119 02:19:58 00:23:19 Randall Farr
68 201 02:19:58 00:23:19 Eric Brackett
69 447 02:21:41 00:23:36 Jeremy Ferris
70 461 02:21:47 00:23:37 Aaron Leeman
71 321 02:22:08 00:23:41 T.J. Tigerman
72 550 02:22:56 00:23:49 Pamela Files
73 358 02:23:12 00:23:52 David Levi
74 297 02:23:32 00:23:55 Heather Henningsen
75 92 02:23:42 00:23:57 Alec Libby
76 606 02:23:44 00:23:57 Bruan Tucker
77 963 02:24:06 00:24:01 Don McFadden
78 19 02:24:14 00:24:02 michael beaudoin
79 540 02:24:33 00:24:05 Greg Gorman
80 70 02:24:47 00:24:07 Merle Hartford
81 535 02:25:27 00:24:14 Jessica Daly
82 77 02:25:54 00:24:19 Sandra Goff
83 37 02:26:12 00:24:22 Chuck Cannone
84 460 02:26:13 00:24:22 John Hill
85 165 02:26:48 00:24:28 Maureen McInnis
86 282 02:27:03 00:24:30 Jay Wilson
87 634 02:27:06 00:24:31 Richard Miller
88 357 02:27:07 00:24:31 Rebekah Sirois
89 380 02:27:10 00:24:31 Steve Oliver
90 30 02:27:13 00:24:32 Julianne Baroody
91 719 02:28:05 00:24:40 Kathy DeGrandpre
92 106 02:28:42 00:24:47 Chris Maher
93 274 02:29:21 00:24:53 Erin Kenaley
94 458 02:29:50 00:24:58 Heidi Packard
95 1059 02:30:07 00:25:01 Scott Robichaud
96 289 02:30:51 00:25:08 Doug Hekl
97 459 02:31:20 00:25:13 Rob Boudewija
98 298 02:32:29 00:25:24 David Cimato
99 150 02:32:38 00:25:26 Amy Simpson
100 414 02:32:39 00:25:26 Scott Reoch
101 213 02:32:43 00:25:27 David Chadbourne
102 162 02:32:56 00:25:29 Dale Arey
103 752 02:34:23 00:25:43 Evan Beck
104 57 02:34:59 00:25:49 Peter Cole
105 142 02:35:13 00:25:52 Alan Ozarowski
106 43 02:35:46 00:25:57 Paul Griffin
107 146 02:35:46 00:25:57 Nancy Kneeland
108 13 02:36:14 00:26:02 Richard Dawson
109 970 02:36:17 00:26:02 Erik Howell
110 885 02:36:31 00:26:05 Kevin Bridges
111 197 02:37:27 00:26:14 Jim Mooney
112 527 02:37:47 00:26:17 Becca Goff
113 415 02:37:48 00:26:18 Bjorn Swenson
114 158 02:38:10 00:26:21 nancy miller
115 113 02:38:21 00:26:23 Eugene Longobardi
116 292 02:38:25 00:26:24 Paul Ainsworth
117 601 02:38:42 00:26:27 Michael Myrick
118 598 02:39:40 00:26:36 Robert Adams
119 23 02:39:49 00:26:38 carl moulton
120 388 02:40:29 00:26:44 Todd Turkewitz
121 12 02:40:39 00:26:46 Margaritt McNulty
122 130 02:41:25 00:26:54 Kate Philbrick
123 96 02:41:37 00:26:56 Bill Brewington
124 114 02:43:22 00:27:13 Samuel Gile
125 195 02:43:49 00:27:18 Denise Morrill
126 464 02:44:24 00:27:24 Tristan Lonara
127 49 02:45:38 00:27:36 Paul Boutin
128 444 02:45:40 00:27:36 Kellie Stratton
129 224 02:46:10 00:27:41 Peter Lyons
130 602 02:46:29 00:27:44 Michael Grenier
131 234 02:46:38 00:27:46 Jess Sheldon
132 381 02:46:42 00:27:47 Allen Huntington
133 266 02:46:58 00:27:49 Mark Duval
134 565 02:47:02 00:27:50 Terri Thompson
135 125 02:47:15 00:27:52 Jeffrey Edwards
136 566 02:47:21 00:27:53 Dan Fahey
137 188 02:47:38 00:27:56 Catherine Hjort
138 127 02:47:45 00:27:57 robyn brown
139 267 02:48:04 00:28:00 Margaret Duval
140 728 02:48:25 00:28:04 Tophe Woodward
141 181 02:48:31 00:28:05 Elizabeth Palmer
142 116 02:48:53 00:28:08 Rob Reed
143 604 02:49:28 00:28:14 Bryron Cook
144 196 02:49:31 00:28:15 Rob Foley
145 613 02:49:42 00:28:17 Bob Zukowski
146 392 02:50:18 00:28:23 Eliza Gray
147 242 02:50:46 00:28:27 Fred Kilfoil
148 503 02:50:58 00:28:29 Fiona Clifford
149 738 02:52:16 00:28:42 Kerry Huckins
150 193 02:53:42 00:28:57 Ginger Reoch
151 258 02:54:03 00:29:00 Allyn Genest
152 144 02:54:08 00:29:01 Robert Smith
153 479 02:54:58 00:29:09 Ellen Popenoe
154 489 02:55:05 00:29:10 Jerrold Edelberg
155 270 02:56:03 00:29:20 Katherine Gatti
156 279 02:56:29 00:29:24 Donna Boudreau
157 633 02:56:36 00:29:26 Dan Stokes
158 211 02:59:56 00:29:59 Lori Thomas
159 729 03:00:03 00:30:00 Tim Woodward
160 180 03:02:12 00:30:22 Colby Derrig
161 457 03:03:40 00:30:36 Karen Morrison
162 511 03:04:21 00:30:43 Harry Center
163 558 03:04:59 00:30:49 Judy Fox
164 554 03:06:13 00:31:02 Karen Nelson
165 210 03:07:24 00:31:14 Sasha Chipman
166 757 03:08:45 00:31:27 Supriya Srinivasan
167 687 03:09:05 00:31:30 Catherine Rush
168 482 03:10:20 00:31:43 Mani Sridharan
169 351 03:10:54 00:31:49 Sara Campbell
170 250 03:11:35 00:31:55 Adrienne Wilson
171 145 03:11:40 00:31:56 Harry Hunt
172 820 03:13:16 00:32:12 Drew Swenson
173 225 03:13:54 00:32:19 Kristine Gile
174 182 03:15:29 00:32:34 Anne Perley
175 625 03:16:17 00:32:42 David Collins
176 521 03:17:14 00:32:52 Katie Swenson
177 428 03:18:42 00:33:07 William Sargent
178 361 03:20:44 00:33:27 Heather Bennett
179 686 03:23:24 00:33:54 Lena Wood
180 685 03:23:30 00:33:55 David Wood
181 669 03:30:07 00:35:01 Mary Cummings
182 15 03:34:09 00:35:41 Adam Johnson
183 34 03:36:07 00:36:01 Steve Amico
184 230 03:37:40 00:36:16 Terry Keough
185 269 03:39:52 00:36:38 Mariah Cunningham
186 283 03:44:47 00:37:27 Jessie Allen
187 11 03:46:55 00:37:49 Shannon Garrity
188 670 03:55:43 00:39:17 Diane Moore



My ACTIVE
Help
Post a Race
Submit Results
Advertise

Training Log
Forums


   

© 2014 Active Network, LLC and/or its affiliates and licensors. All rights reserved.
About Us | Terms of Use | Copyright Policy | Your Privacy Rights | Support
Cool Running Facebook Facebook | Cool Running Twitter Twitter | Newsletter Subscription | News Feed Subscription | WannaDo
Race Directors | Running Events | Race Results | Running Tips | Pace Calculator | Couch to 5K | Running Forum | Running News